Regional Weather Roundup
Issued by NWS

Home | Current Version | Previous Version | Text Only | Print | Product List | Glossary On
Versions: 1 2 3 4 5 6 7 8 9 10 11 12 13 14 15 16 17 18 19 20 21 22 23 24 25 26 27 28 29 30 31 32 33 34 35 36 37 38 39 40 41 42 43 44 45 46 47 48 49 50
332
ASUS43 KDTX 121510
RWRMI
MICHIGAN HOURLY REGIONAL WEATHER ROUNDUP
NATIONAL WEATHER SERVICE DETROIT/PONTIAC MI
ISSUED BY NATIONAL WEATHER SERVICE GRAND RAPIDS MI
1000 AM EST TUE DEC 12 2017

NOTE: "FAIR" INDICATES FEW OR NO CLOUDS BELOW 12,000 FEET WITH NO
SIGNIFICANT WEATHER AND/OR OBSTRUCTION TO VISIBILITY.

MIZ047>049-052>055-059>063-066>070-074>076-081>083-121600-
SOUTHEAST LOWER MICHIGAN

CITY           SKY/WX    TMP DP  RH WIND       PRES   REMARKS
ADRIAN         FLURRIES  19   9  65 NW13G23   29.89R WCI   6
ALMA           PTSUNNY   17   9  71 NW9G16    29.90R WCI   5
ANN ARBOR      MOSUNNY   19   7  59 W16G26    29.86R WCI   4
BAD AXE        CLOUDY    13   3  65 NW20G32   29.80R WCI  -5
DETROIT CITY   MOSUNNY   19   4  51 NW15G29   29.84R WCI   5
DETROIT        PTSUNNY   21   8  57 NW17G24   29.85R WCI   7
FLINT          SUNNY     16   3  56 NW17G26   29.86R WCI   0
GROSSE ILE     PTSUNNY   20   9  62 NW14G26   29.85R WCI   7
HILLSDALE      SUNNY     19   9  63 NW16G23   29.86S WCI   5
HOWELL         MOSUNNY   17   8  66 NW16      29.85R WCI   2

CITY           SKY/WX    TMP DP  RH WIND       PRES   REMARKS
JACKSON        MOSUNNY   18   8  65 W12G22    29.87S WCI   5
LANSING        CLOUDY    17  11  77 NW14G23   29.90R WCI   3
MASON          PTSUNNY   19   7  59 NW15G23   29.88R WCI   5
MONROE         MOSUNNY   20   6  53 NW22G28   29.87R WCI   4
MT. CLEMENS    MOSUNNY   18   3  52 NW28      29.80R WCI  -1
PONTIAC        MOSUNNY   16   5  62 NW23G30   29.81R WCI  -2
PORT HOPE        N/A     16   8  71 NW23G38   29.76R WCI  -2
PORT HURON     LGT SNOW  18   5  57 NW15G26   29.79R WCI   3
TRI CITIES     SUNNY     16   1  51 NW17G32   29.87R WCI   0
YPSILANTI      MOSUNNY   21   9  59 NW23G37   29.86R WCI   5
$$
MIZ043>046-050>051-056>058-064>065-071>073-077>080-121600-
SOUTHWEST LOWER MICHIGAN

CITY           SKY/WX    TMP DP  RH WIND       PRES   REMARKS
BATTLE CREEK   MOSUNNY   19   7  59 NW17G23   29.92R WCI   4
BENTON HARBOR  HVY SNOW  21  16  81 NW14G23   29.98S VSB 1/4 WCI   8
BIG RAPIDS     CLOUDY    15   8  73 N15       29.89R WCI   0
COLDWATER      SUNNY     19   8  62 NW14      29.91S WCI   6
HOLLAND        SNOW      18  14  84 N14G21    29.97R VSB 1/4 WCI   4
GRAND RAPIDS   PTSUNNY   19   7  59 NW21G33   29.93R WCI   3
KALAMAZOO      CLOUDY    19  11  70 NW15      29.94R WCI   5
MARSHALL       SUNNY     19   6  56 NW9G16    29.90R WCI   8
MOUNT PLEASANT PTSUNNY   17   8  67 NW6       29.89R WCI   8
MUSKEGON       LGT SNOW  19  11  70 NW16      29.97S VSB 1   WCI   4
STURGIS        PTSUNNY   19  13  77 N12G18    29.93S WCI   6
$$
MIZ016>042-121600-
NORTHERN LOWER MICHIGAN

CITY           SKY/WX    TMP DP  RH WIND       PRES   REMARKS
ALPENA         LGT SNOW   8   4  83 NW17G32   29.81R VSB 3/4 WCI -10
BEAVER ISLAND  PTSUNNY   13   2  63 N12G22    29.95R WCI  -1
BELLAIRE       LGT SNOW  13  10  85 N5        29.93R WCI   6
CADILLAC       CLOUDY    13   6  76 NW16      29.84S HAZE    WCI  -4
CHARLEVOIX     LGT SNOW  14   6  70 N20G28    29.94S WCI  -3
GAYLORD        MIX PCPN   7  -3  64 N9G22     29.83R WCI  -7
HOUGHTON LAKE  LGT SNOW  10   4  76 N13G23    29.85R WCI  -5
MANISTEE       LGT SNOW  18  10  73 N16G26    29.95R VSB 1   WCI   3
OSCODA         PTSUNNY   11  -1  56 NW23G35   29.80R WCI  -8
PELLSTON       PTSUNNY    9   0  67 N17G26    29.92R WCI  -9
TRAVERSE CITY  FLURRIES  17   4  56 N21G31    29.92R WCI   0
LUDINGTON      LGT SNOW  17   8  66 NW13G28   29.96R WCI   4
$$
MIZ007>008-015-121600-
EASTERN UPPER MICHIGAN

CITY           SKY/WX    TMP DP  RH WIND       PRES   REMARKS
KINROSS        SUNNY      2  -5  72 N18G25    29.90S WCI -19
MACKINAC ISLAN CLOUDY     9   3  75 N15G25    29.89S WCI  -8
NEWBERRY         N/A      8   4  84 N15G23    29.92S WCI -10
S. S. MARIE    PTSUNNY    1 -10  60 N13G28    29.91R WCI -17
$$
MIZ004>006-011>014-085-121600-
CENTRAL UPPER MICHIGAN

CITY           SKY/WX    TMP DP  RH WIND       PRES   REMARKS
MANISTIQUE     LGT SNOW   9   3  75 N9        29.96S WCI  -4
ESCANABA       MOSUNNY   13   0  56 NW15G23   30.01R WCI  -3
MENOMINEE      FLURRIES  14   2  58 N16       30.06S WCI  -2
SAWYER-GWINN   CLOUDY     9   1  72 NW15      29.96R WCI  -8
$$
MIZ001>003-009>011-084-121600-
WESTERN UPPER MICHIGAN

CITY           SKY/WX    TMP DP  RH WIND       PRES   REMARKS
IRON MOUNTAIN  CLOUDY    10   3  73 NW9       29.99S WCI  -3
HOUGHTON       LGT SNOW  10   2  69 NW13      30.00S WCI  -5
COPPER HARBOR    N/A     13   9  84 NE20G25   30.02F WCI  -5
IRONWOOD       LGT SNOW   8   4  83 W9        30.05F FOG     WCI  -5
$$

ABBREVIATIONS USED IN REMARKS
   TC - TEMPERATURE IN CELSIUS
  WCI - WIND CHILL INDEX
   HX - HEAT INDEX
  VSB - VISIBILITY





USA.gov is the U.S. government's official web portal to all federal, state and local government web resources and services.